Date,TemperatureHighF,TemperatureAvgF,TemperatureLowF,DewpointHighF,DewpointAvgF,DewpointLowF,HumidityHigh,HumidityAvg,HumidityLow,PressureMaxIn,PressureMinIn,WindSpeedMaxMPH,WindSpeedAvgMPH,GustSpeedMaxMPH,PrecipitationSumIn
2013-1-1,50.8,47.7,44.1,50.3,42.6,31.0,98,84,55,30.17,29.98,7,0,7,0.26
2013-1-2,50.1,47.2,43.4,49.6,43.6,39.1,99,88,70,30.22,29.94,9,0,9,0.28
2013-1-3,45.5,41.8,31.9,40.1,37.9,30.9,96,86,74,30.33,30.17,4,0,4,0.00
2013-1-4,52.5,38.2,28.1,34.1,28.3,22.0,98,71,37,30.40,30.26,8,0,8,0.00
2013-1-5,51.3,39.2,27.4,36.7,27.9,21.9,93,66,38,30.47,30.30,5,0,5,0.00
2013-1-6,50.8,44.8,40.1,43.0,38.4,33.6,96,78,68,30.31,30.10,6,0,6,0.02
2013-1-7,54.8,42.0,32.1,36.6,33.1,29.9,94,73,44,30.48,30.25,8,0,8,0.00
2013-1-8,58.9,45.0,30.8,46.9,38.6,29.6,97,80,54,30.51,30.40,3,0,3,0.00
2013-1-9,49.5,46.6,44.2,45.3,43.9,42.0,94,90,85,30.45,30.40,2,0,2,0.00
2013-1-10,68.0,57.7,47.7,51.4,45.3,41.3,98,66,42,30.55,30.43,5,0,5,0.00
2013-1-11,54.4,47.9,44.4,49.2,46.7,43.3,99,95,72,30.43,30.21,5,0,5,0.10
2013-1-12,69.3,55.5,47.7,64.8,54.4,47.4,100,96,84,30.23,30.13,2,0,2,0.00
2013-1-13,74.2,62.6,51.0,62.5,58.1,50.5,100,86,66,30.18,30.08,10,1,10,0.00
2013-1-14,65.2,62.4,60.0,63.9,60.4,57.2,99,93,88,30.17,30.10,7,1,7,0.04
2013-1-15,64.7,49.4,44.5,61.9,48.4,44.0,98,96,89,30.24,30.09,7,1,7,0.11
2013-1-16,50.6,46.3,43.2,50.3,45.9,42.7,99,99,98,30.11,30.02,4,0,4,0.14
2013-1-17,51.7,46.2,33.2,51.4,45.7,32.7,99,98,94,30.22,29.85,14,1,14,1.33
2013-1-18,48.3,37.1,30.4,33.8,30.3,23.5,98,79,39,30.58,30.20,8,0,8,0.16
2013-1-19,53.9,39.1,26.2,36.9,31.1,25.2,98,76,41,30.55,30.22,7,0,7,0.01
2013-1-20,64.9,45.5,34.4,40.0,35.2,31.5,95,70,34,30.23,30.05,8,0,8,0.00
2013-1-21,60.7,44.8,30.0,38.9,30.7,20.0,98,63,33,30.14,29.94,12,1,12,0.01
2013-1-22,43.0,36.7,30.3,23.4,9.6,-3.1,48,33,15,30.33,30.03,16,1,16,0.00
2013-1-23,43.9,34.2,24.3,26.0,13.8,4.3,59,43,32,30.44,30.12,10,1,10,0.00
2013-1-24,43.9,35.0,26.8,31.9,17.8,3.5,94,53,26,30.57,30.03,13,1,13,0.00
2013-1-25,26.8,25.4,24.5,25.0,15.7,4.8,94,69,39,30.59,30.20,7,0,7,0.04
2013-1-26,44.7,33.1,25.5,35.7,30.2,24.0,97,90,66,30.44,30.17,5,0,5,0.07
2013-1-27,44.0,35.1,26.2,30.6,28.3,23.9,97,77,57,30.65,30.44,6,0,6,0.01
2013-1-28,50.9,42.6,35.8,48.7,36.5,29.2,92,79,64,30.56,30.31,8,1,8,0.01
2013-1-29,72.2,56.8,42.4,59.1,51.8,41.6,99,85,63,30.32,30.09,10,1,10,0.00
2013-1-30,72.5,65.4,54.5,63.6,60.7,51.9,95,85,66,30.10,29.47,28,6,28,0.51
2013-1-31,54.2,45.6,36.2,51.6,30.7,21.9,92,58,37,30.08,29.55,12,2,16,0.01
2013-2-1,42.9,37.7,27.1,30.1,16.9,5.2,62,44,26,30.44,29.96,17,2,17,0.00
2013-2-2,46.4,35.5,24.7,36.8,17.7,9.5,82,50,31,30.47,30.10,22,1,22,0.00
2013-2-3,54.1,43.4,35.2,36.7,30.6,23.5,91,63,36,30.10,29.90,16,1,16,0.00
2013-2-4,48.4,38.8,29.8,32.1,27.7,23.9,92,66,44,30.21,30.05,10,1,10,0.00
2013-2-5,63.9,47.6,38.5,41.5,35.6,30.3,90,65,41,30.07,29.93,13,1,13,0.00
2013-2-6,65.6,47.4,32.9,42.1,31.8,24.1,98,62,22,30.30,30.03,8,0,8,0.00
2013-2-7,47.0,42.9,39.8,41.1,36.9,28.3,97,80,49,30.35,30.03,8,0,8,0.38
2013-2-8,60.0,45.5,38.4,48.5,39.2,30.1,97,81,51,30.15,29.89,12,1,12,0.15
2013-2-9,57.6,42.1,30.2,32.2,26.6,18.1,90,61,23,30.40,30.15,7,0,7,0.00
2013-2-10,56.7,43.0,29.0,46.0,30.2,20.8,94,66,27,30.53,30.24,9,1,9,0.09
2013-2-11,62.7,56.9,48.3,59.6,55.3,46.0,98,95,86,30.24,29.98,14,2,14,0.17
2013-2-12,60.3,52.3,42.9,52.3,40.4,29.1,98,68,32,30.15,29.95,5,0,5,0.01
2013-2-13,48.8,46.1,40.7,47.3,44.1,36.2,98,93,83,29.99,29.69,9,0,9,0.06
2013-2-14,52.3,40.8,32.1,38.3,34.0,28.3,98,79,40,30.12,29.91,2,0,5,0.00
2013-2-15,63.2,45.7,31.5,44.3,35.0,30.7,99,72,33,30.16,29.97,8,0,8,0.01
2013-2-16,46.2,37.2,31.7,36.6,32.8,19.6,95,85,59,30.03,29.89,8,0,8,0.15
2013-2-17,42.1,32.8,26.1,24.5,16.3,10.1,83,52,27,30.34,30.03,16,1,16,0.00
2013-2-18,53.4,39.0,22.6,30.0,25.2,20.3,96,63,33,30.46,30.29,10,2,10,0.00
2013-2-19,48.5,41.6,36.6,46.5,37.1,27.5,98,84,59,30.30,29.93,12,1,12,0.23
2013-2-20,54.5,41.5,30.0,35.9,23.0,16.2,95,51,23,30.18,30.05,9,0,9,0.00
2013-2-21,59.1,43.2,27.4,33.8,21.9,16.1,85,46,20,30.29,30.15,6,0,6,0.00
2013-2-22,46.6,37.5,35.7,37.1,35.4,24.7,97,93,45,30.39,30.17,6,0,6,0.60
2013-2-23,43.3,40.0,36.4,42.5,39.3,35.6,98,98,97,30.19,29.90,5,0,5,0.49
2013-2-24,64.6,49.9,38.8,46.3,39.8,31.0,99,73,29,30.08,29.88,5,0,9,0.01
2013-2-25,42.6,39.4,36.6,35.3,28.2,25.5,90,64,51,30.26,30.07,10,0,10,0.00
2013-2-26,54.7,42.1,34.0,54.3,39.9,27.0,99,92,63,30.16,29.60,13,1,13,0.90
2013-2-27,57.7,47.7,41.4,42.9,40.9,38.0,99,79,52,29.87,29.71,10,1,10,0.00
2013-2-28,51.7,42.2,35.1,38.0,32.0,27.4,96,70,40,29.94,29.77,6,1,10,0.00
2013-3-1,48.4,39.6,29.6,34.6,30.1,26.9,92,70,49,29.98,29.91,11,0,11,0.00
2013-3-2,47.3,39.0,31.0,36.2,31.1,22.8,91,74,53,30.00,29.88,8,0,8,0.00
2013-3-3,48.7,36.5,27.9,24.1,20.8,17.0,74,54,34,30.07,29.92,12,1,12,0.00
2013-3-4,54.5,38.7,25.2,33.2,20.6,15.3,81,52,22,30.20,30.06,10,1,10,0.00
2013-3-5,49.4,43.1,37.0,48.9,39.0,28.7,98,86,65,30.13,29.63,8,0,8,0.20
2013-3-6,50.8,42.4,36.0,44.2,30.2,25.3,97,63,41,30.14,29.62,19,3,19,0.11
2013-3-7,55.7,42.4,33.9,32.5,29.3,26.0,79,62,37,30.32,30.14,11,1,11,0.02
2013-3-8,57.3,43.3,31.0,28.7,26.3,23.9,79,54,28,30.37,30.24,14,1,14,0.02
2013-3-9,65.3,46.6,30.4,38.4,32.0,26.9,91,61,29,30.41,30.28,5,0,5,0.00
2013-3-10,67.6,51.5,34.2,40.5,35.5,30.3,95,60,30,30.36,30.23,8,1,8,0.00
2013-3-11,66.9,55.6,40.8,55.4,43.9,25.6,88,66,39,30.27,29.93,12,2,12,0.02
2013-3-12,70.3,60.5,48.5,61.0,52.1,34.8,97,77,37,30.01,29.79,14,2,17,0.53
2013-3-13,57.8,45.0,35.0,40.4,29.6,21.1,97,58,30,30.21,30.01,7,1,15,0.03
2013-3-14,55.6,41.6,29.7,32.9,21.5,17.0,66,46,24,30.33,30.19,13,1,13,0.10
2013-3-15,63.4,48.5,31.3,40.1,31.9,22.0,94,56,34,30.27,29.95,13,1,13,0.00
2013-3-16,78.3,63.7,51.2,49.4,45.0,39.5,74,53,34,29.95,29.73,15,1,15,0.00
2013-3-17,69.0,55.0,45.9,54.8,46.3,39.8,91,73,47,30.17,29.88,11,1,11,0.00
2013-3-18,45.9,42.2,40.4,42.5,40.3,38.8,98,93,80,30.21,29.91,8,0,8,0.24
2013-3-19,67.4,52.2,40.7,48.2,35.0,18.1,99,62,21,30.07,29.89,14,1,14,0.37
2013-3-20,56.8,48.3,40.7,34.8,19.7,13.3,62,33,21,30.17,29.85,13,1,13,0.00
2013-3-21,47.5,43.1,40.7,35.5,32.9,29.5,77,67,60,29.85,29.81,5,0,11,0.00
2013-3-22,51.9,41.7,25.4,28.5,19.7,13.9,75,43,27,30.16,30.04,7,0,8,0.00
2013-3-23,55.7,45.0,37.0,41.0,33.4,23.4,89,65,46,30.12,29.96,5,0,5,0.00
2013-3-24,43.5,40.7,38.0,40.6,38.9,37.0,96,93,86,29.99,29.59,11,0,11,0.39
2013-3-25,49.2,41.9,37.1,38.8,31.7,22.7,97,71,38,29.92,29.62,21,2,21,0.18
2013-3-26,49.1,41.8,35.1,29.9,27.4,25.5,73,57,43,30.22,29.92,13,1,13,0.07
2013-3-27,53.0,41.8,31.6,27.2,24.9,22.7,78,53,32,30.31,30.20,12,1,12,0.20
2013-3-28,58.1,43.9,30.8,30.6,24.8,21.8,72,49,26,30.35,30.23,15,1,15,0.00
2013-3-29,61.9,47.5,29.9,38.1,30.0,25.2,93,57,25,30.40,30.23,9,0,9,0.00
2013-3-30,67.3,55.2,45.6,46.7,41.7,35.9,85,63,39,30.28,30.12,6,0,6,0.00
2013-3-31,69.1,57.2,49.4,60.0,52.7,46.5,97,85,62,30.13,29.84,8,1,13,0.25
2013-4-1,73.5,60.6,52.1,54.9,47.7,39.1,99,69,31,29.99,29.87,18,1,18,0.05
2013-4-2,64.0,52.2,39.1,45.0,35.4,28.4,91,56,27,30.21,29.99,12,0,13,0.01
2013-4-3,62.2,52.8,42.6,37.1,24.7,17.5,64,35,21,30.33,30.17,9,1,9,0.01
2013-4-4,49.2,42.4,38.5,39.1,33.6,21.5,96,74,37,30.35,29.99,10,1,10,0.85
2013-4-5,66.8,49.6,37.7,49.3,41.4,36.7,98,77,39,30.08,29.95,7,0,7,0.02
2013-4-6,69.5,53.5,38.5,42.2,37.4,33.3,96,61,27,30.29,30.08,7,0,7,0.00
2013-4-7,71.5,58.0,42.6,50.3,43.8,36.2,90,61,38,30.32,30.14,11,1,11,0.00
2013-4-8,78.0,65.8,52.3,57.2,53.5,48.9,96,67,43,30.22,30.09,12,1,12,0.00
2013-4-9,83.3,70.7,55.5,60.3,57.4,53.7,95,66,43,30.23,30.10,9,1,9,0.00
2013-4-10,70.4,67.1,66.0,57.8,57.6,57.4,74,71,65,30.11,30.10,2,0,2,0.00
2013-4-11,80.2,70.7,60.8,66.7,61.7,57.8,95,74,54,30.02,29.80,5,2,16,0.00
2013-4-12,83.0,73.0,62.3,69.2,58.3,41.8,98,64,29,29.83,29.64,13,2,15,0.22
2013-4-13,77.9,63.5,50.7,51.3,43.1,37.5,82,51,24,30.06,29.83,7,0,7,0.01
2013-4-14,78.9,63.3,45.4,54.0,46.6,36.6,97,61,23,30.14,30.03,9,1,9,0.01
2013-4-15,72.8,65.3,59.4,60.8,58.3,53.0,95,79,63,30.23,30.00,6,0,6,0.00
2013-4-16,79.5,67.6,57.6,63.5,60.2,56.1,97,78,51,30.32,30.21,4,0,4,0.01
2013-4-17,85.5,70.8,58.5,66.2,61.8,57.4,98,76,41,30.28,30.12,5,0,6,0.00
2013-4-18,80.7,71.2,62.9,64.5,61.4,58.8,93,73,51,30.21,30.03,10,1,10,0.00
2013-4-19,80.3,69.3,58.7,68.8,65.1,53.6,97,87,64,30.06,29.75,20,2,20,0.15
2013-4-20,66.5,55.7,46.0,54.2,40.0,32.1,92,59,30,30.30,29.90,10,0,10,0.02
2013-4-21,64.5,53.2,41.3,44.7,41.4,36.6,95,67,42,30.50,30.30,9,1,9,0.01
2013-4-22,66.8,52.9,39.8,43.1,36.0,27.0,82,57,25,30.49,30.27,11,1,11,0.00
2013-4-23,69.1,56.4,48.2,55.4,49.5,42.7,94,79,58,30.32,30.16,7,0,7,0.01
2013-4-24,76.3,62.7,51.9,59.4,55.2,50.8,97,79,51,30.20,30.02,11,0,11,0.00
2013-4-25,74.0,62.3,50.1,58.5,45.9,36.8,91,59,27,30.31,30.07,7,0,7,0.00
2013-4-26,74.3,59.8,45.3,51.6,40.6,32.5,90,54,22,30.47,30.31,8,0,8,0.00
2013-4-27,68.1,60.8,56.6,55.7,50.2,43.0,92,69,47,30.40,30.30,6,0,6,0.00
2013-4-28,60.3,57.6,55.3,59.2,55.1,50.9,99,91,80,30.30,30.09,7,0,7,2.31
2013-4-29,74.5,63.3,57.4,65.0,60.6,57.0,99,92,65,30.11,29.99,4,0,4,0.47
2013-4-30,69.0,63.0,56.9,62.1,60.1,54.9,99,90,76,30.21,30.03,4,0,6,0.00
2013-5-1,63.9,59.2,54.9,59.3,56.8,53.6,97,92,82,30.33,30.20,10,0,10,0.02
2013-5-2,63.4,59.0,57.1,59.4,57.1,55.4,97,93,85,30.35,30.27,7,0,7,0.00
2013-5-3,70.5,60.6,51.9,56.8,53.5,47.1,95,78,57,30.28,30.17,10,0,10,0.00
2013-5-4,67.0,56.5,49.7,54.0,49.4,44.6,90,78,61,30.21,30.06,11,1,11,0.00
2013-5-5,58.5,55.5,52.8,57.9,52.3,48.1,98,89,82,30.09,29.95,13,1,13,0.35
2013-5-6,73.3,63.5,58.1,64.3,57.8,52.4,99,84,51,29.97,29.84,11,0,11,0.41
2013-5-7,72.2,60.3,52.3,56.4,52.2,48.6,97,77,48,29.99,29.89,8,0,8,0.26
2013-5-8,71.4,61.7,54.0,65.7,58.9,53.5,99,91,66,30.05,29.96,14,0,14,0.15
2013-5-9,84.5,68.4,54.2,63.6,58.7,53.4,99,75,38,30.12,30.03,5,0,5,0.00
2013-5-10,85.0,70.5,57.6,65.6,61.1,56.8,99,75,44,30.11,29.98,9,0,9,0.00
2013-5-11,81.6,71.5,62.9,69.4,63.7,60.5,96,77,54,29.99,29.82,9,0,9,0.27
2013-5-12,76.4,64.9,55.9,61.8,52.8,38.0,98,69,31,30.07,29.85,9,0,9,0.05
2013-5-13,69.8,57.8,45.3,44.3,39.6,33.6,90,55,27,30.22,30.07,10,0,10,0.00
2013-5-14,74.0,59.9,44.1,49.8,42.5,36.9,90,55,32,30.31,30.12,7,0,7,0.00
2013-5-15,90.3,71.0,57.0,64.8,56.1,45.5,80,61,40,30.12,29.95,7,0,7,0.00
2013-5-16,85.2,72.8,62.7,65.1,62.1,55.8,95,71,37,30.04,29.94,1,0,8,0.00
2013-5-17,86.8,75.5,65.1,68.9,65.0,60.7,95,72,47,30.11,30.02,4,0,4,0.00
2013-5-18,74.7,68.7,64.7,69.5,65.4,62.9,97,90,75,30.18,30.10,5,0,5,0.15
2013-5-19,73.6,68.5,64.6,70.0,66.9,63.7,99,95,85,30.17,30.08,3,0,5,0.39
2013-5-20,80.0,71.6,68.1,72.9,69.1,67.0,99,92,75,30.15,30.03,3,0,5,0.74
2013-5-21,84.0,73.5,67.7,74.8,70.4,67.3,99,91,72,30.09,29.97,5,0,5,0.16
2013-5-22,83.1,75.1,68.8,71.0,69.0,64.0,96,83,63,30.06,29.92,6,0,6,0.07
2013-5-23,80.0,71.0,65.0,69.9,67.0,62.7,99,88,69,30.00,29.85,7,0,7,1.46
2013-5-24,73.5,65.7,55.0,64.2,53.4,40.6,99,69,34,30.23,29.87,11,0,11,0.08
2013-5-25,78.2,61.2,47.0,56.0,44.9,36.7,91,59,29,30.35,30.18,10,0,10,0.00
2013-5-26,77.9,64.9,56.8,57.3,49.1,40.7,90,58,36,30.32,30.21,5,0,5,0.00
2013-5-27,81.7,68.8,54.5,64.7,57.3,53.4,98,70,40,30.31,30.18,6,0,6,0.00
2013-5-28,82.9,73.8,64.5,68.7,65.8,63.0,95,77,59,30.28,30.17,6,0,6,0.00
2013-5-29,84.4,74.7,63.7,68.0,65.2,61.5,94,74,53,30.28,30.18,5,0,5,0.00
2013-5-30,85.3,74.7,64.7,68.8,66.1,63.2,97,76,50,30.32,30.19,5,0,5,0.00
2013-5-31,86.0,75.7,67.8,70.8,68.5,66.1,97,80,55,30.27,30.10,7,0,7,0.00
2013-6-1,86.5,77.4,68.6,70.5,68.4,65.0,96,76,51,30.14,30.01,7,0,7,0.00
2013-6-2,85.1,75.8,68.8,72.9,68.8,66.2,97,80,56,30.06,29.89,7,0,7,1.12
2013-6-3,84.4,73.5,67.3,73.3,69.7,66.0,99,89,61,29.97,29.83,7,0,8,1.18
2013-6-4,83.7,73.6,66.5,71.6,68.1,65.9,99,84,62,30.08,29.94,8,0,8,0.01
2013-6-5,80.3,72.5,69.0,70.4,67.2,64.0,97,84,69,30.12,29.99,9,0,9,0.24
2013-6-6,75.0,71.2,69.2,74.1,70.4,68.4,99,97,93,30.00,29.82,9,0,9,1.12
2013-6-7,76.1,70.1,67.8,73.6,69.4,67.1,99,98,90,29.84,29.60,9,0,9,2.66
2013-6-8,85.8,73.6,65.5,74.0,69.4,64.7,100,88,58,30.09,29.84,5,0,5,0.09
2013-6-9,87.7,76.4,68.7,74.0,71.3,68.1,99,85,58,30.16,30.05,6,0,6,0.00
2013-6-10,80.4,73.6,69.8,76.9,72.0,68.5,99,95,82,30.09,29.89,15,0,15,1.03
2013-6-11,87.0,77.8,69.1,72.1,69.0,65.1,98,77,51,29.98,29.91,7,0,8,0.01
2013-6-12,91.3,77.1,66.1,77.4,71.5,65.4,99,84,60,30.01,29.86,1,0,5,0.00
2013-6-13,94.1,80.0,68.1,76.8,72.4,62.8,96,80,45,29.87,29.63,22,0,22,0.10
2013-6-14,83.0,72.5,60.1,67.1,61.5,56.7,97,72,42,30.02,29.75,9,0,9,0.01
2013-6-15,86.5,73.6,60.7,67.7,63.2,59.7,99,73,44,30.14,30.02,6,0,6,0.00
2013-6-16,87.2,76.4,65.7,70.6,67.0,62.5,91,74,53,30.15,30.00,8,0,8,0.00
2013-6-17,86.5,75.6,70.4,74.7,70.0,66.6,98,84,63,30.04,29.92,5,0,5,0.32
2013-6-18,85.1,74.7,69.6,74.6,71.2,68.7,98,90,66,29.98,29.77,9,0,9,0.63
2013-6-19,85.3,74.7,67.7,70.9,68.9,67.1,99,84,57,30.11,29.88,6,0,6,0.00
2013-6-20,85.0,74.6,66.6,69.2,66.7,64.9,96,78,53,30.23,30.11,6,0,6,0.00
2013-6-21,84.6,73.1,61.6,66.8,62.4,57.6,90,71,46,30.27,30.17,7,0,7,0.00
2013-6-22,85.3,73.8,65.0,72.9,68.4,62.1,93,84,63,30.22,30.10,6,0,6,0.00
2013-6-23,86.8,74.9,70.1,75.4,71.6,69.0,98,90,63,30.21,30.12,8,0,8,0.22
2013-6-24,84.1,74.8,71.3,76.6,72.2,69.5,98,92,74,30.21,30.10,5,0,5,0.14
2013-6-25,91.3,77.9,70.7,77.3,72.6,69.3,98,85,54,30.14,29.99,6,0,6,0.09
2013-6-26,90.6,76.7,68.5,77.0,71.7,66.0,98,86,56,30.04,29.89,9,0,9,0.38
2013-6-27,87.0,76.6,68.5,78.4,73.4,67.3,99,91,69,29.96,29.71,7,0,7,0.64
2013-6-28,91.5,77.7,70.1,77.6,73.1,69.3,99,88,57,29.75,29.59,10,0,10,1.98
2013-6-29,84.7,76.0,69.9,75.9,72.5,69.3,99,90,70,29.72,29.61,4,0,8,0.02
2013-6-30,81.9,74.5,69.7,75.6,72.4,68.8,98,93,79,29.85,29.70,2,0,7,0.49
2013-7-1,81.2,74.2,69.7,74.4,71.5,69.1,99,92,77,29.99,29.83,5,0,11,0.36
2013-7-2,76.4,73.5,72.3,73.9,72.2,71.3,99,96,90,30.16,29.99,8,0,8,0.77
2013-7-3,81.2,75.8,72.7,76.3,74.3,72.4,99,95,83,30.23,30.13,7,0,7,0.12
2013-7-4,87.1,77.9,73.8,77.3,74.2,72.2,98,89,67,30.26,30.16,7,0,7,0.11
2013-7-5,85.8,76.2,72.6,79.3,74.1,71.0,99,93,75,30.26,30.16,9,0,9,0.91
2013-7-6,88.3,77.0,71.2,76.8,73.8,70.6,99,91,66,30.25,30.11,5,0,7,0.07
2013-7-7,87.1,78.0,72.7,77.1,74.1,71.3,98,88,69,30.19,30.06,5,0,7,0.16
2013-7-8,87.2,78.2,72.6,77.5,74.5,72.1,99,89,68,30.18,30.09,5,0,5,0.01
2013-7-9,88.3,78.3,73.7,79.5,75.0,72.5,98,90,71,30.17,30.04,6,0,6,0.20
2013-7-10,87.9,78.1,73.0,77.8,74.6,72.4,99,90,70,30.11,29.93,11,0,11,0.84
2013-7-11,79.3,75.0,72.6,76.4,74.1,72.0,99,97,90,29.97,29.88,4,0,4,0.38
2013-7-12,81.0,74.1,71.0,74.5,71.5,68.9,99,92,77,30.02,29.88,8,0,8,0.01
2013-7-13,82.5,74.2,70.0,75.8,71.6,68.5,98,92,79,30.12,30.00,8,0,8,0.04
2013-7-14,86.3,77.9,72.7,78.7,74.1,71.7,99,89,69,30.28,30.12,10,0,10,0.16
2013-7-15,90.8,79.0,70.4,76.4,73.4,69.8,99,85,58,30.33,30.24,5,0,5,0.01
2013-7-16,94.3,82.2,71.0,79.0,74.3,70.0,99,80,50,30.30,30.19,4,0,4,0.00
2013-7-17,91.8,80.1,73.8,81.5,76.1,72.1,97,88,66,30.22,30.11,6,0,6,0.05
2013-7-18,93.3,80.8,72.5,80.4,75.4,71.6,99,85,57,30.16,30.04,2,0,8,0.03
2013-7-19,88.3,81.3,75.2,79.0,76.1,73.8,97,85,67,30.11,29.98,5,0,5,0.00
2013-7-20,87.3,79.2,74.9,78.6,75.3,72.9,96,88,73,30.04,29.92,4,0,7,0.00
2013-7-21,88.7,78.9,73.7,78.3,74.4,71.8,98,87,69,30.01,29.90,7,0,7,0.09
2013-7-22,86.5,77.5,71.9,76.4,73.7,71.2,99,89,71,29.97,29.83,6,0,6,0.00
2013-7-23,91.3,80.7,73.0,75.8,73.3,70.5,97,80,53,29.86,29.73,8,0,8,0.00
2013-7-24,92.3,79.9,69.6,76.9,72.5,67.6,98,80,50,29.89,29.72,10,0,10,0.91
2013-7-25,83.7,74.5,67.2,74.1,69.9,65.7,99,86,67,30.02,29.81,7,0,7,0.01
2013-7-26,87.0,76.2,67.2,71.7,69.0,66.0,96,80,56,30.11,30.01,3,0,3,0.00
2013-7-27,81.0,72.9,69.0,74.2,70.7,67.7,98,93,77,30.05,29.93,7,0,11,1.96
2013-7-28,88.3,77.1,70.4,76.3,72.4,69.8,99,87,61,30.01,29.92,11,0,11,0.47
2013-7-29,87.2,76.3,69.7,72.7,70.5,67.4,99,84,55,30.15,30.00,8,0,8,0.00
2013-7-30,86.0,75.6,65.0,74.2,68.2,63.6,98,80,53,30.23,30.13,4,0,5,0.01
2013-7-31,82.9,75.8,70.8,75.4,72.1,69.3,98,89,71,30.16,29.98,8,0,8,0.23
2013-8-1,86.3,76.9,71.2,77.8,73.2,70.3,98,89,70,30.01,29.87,5,0,6,0.00
2013-8-2,89.3,79.1,71.2,75.7,72.5,69.4,98,82,53,30.03,29.92,4,0,4,0.00
2013-8-3,89.8,80.3,74.3,78.8,75.1,72.8,98,85,61,30.02,29.91,8,0,8,0.00
2013-8-4,87.9,78.2,70.0,73.9,69.5,64.2,97,77,47,30.03,29.91,9,0,9,0.01
2013-8-5,84.3,75.7,67.5,70.9,68.4,65.4,95,79,59,30.08,29.98,6,0,6,0.00
2013-8-6,75.7,72.1,69.0,70.3,68.1,65.6,96,87,78,30.07,29.99,6,0,6,0.06
2013-8-7,85.5,77.1,71.2,74.9,71.3,68.0,95,83,61,30.10,30.01,5,0,5,0.00
2013-8-8,86.8,78.0,73.1,77.5,73.9,71.3,95,88,68,30.08,29.99,4,0,4,0.01
2013-8-9,89.0,79.8,74.7,79.1,75.4,73.1,98,87,70,30.07,29.99,7,0,7,0.22
2013-8-10,90.5,78.1,72.4,80.8,75.0,71.8,99,91,64,30.11,30.02,14,0,14,0.91
2013-8-11,93.6,80.0,71.9,78.8,74.7,71.6,100,85,54,30.12,30.01,4,0,4,0.00
2013-8-12,93.5,81.5,73.4,78.3,74.8,72.5,98,82,55,30.05,29.93,6,0,6,0.00
2013-8-13,90.1,78.8,72.8,78.7,74.4,71.2,98,87,65,29.97,29.78,8,0,8,0.41
2013-8-14,77.2,72.4,66.8,73.4,66.9,62.0,98,84,67,30.09,29.84,9,0,9,0.00
2013-8-15,76.3,67.9,61.6,63.8,60.5,57.0,92,78,55,30.16,30.08,7,0,7,0.00
2013-8-16,71.9,64.7,59.5,65.0,61.0,57.8,95,88,73,30.18,30.09,5,0,5,0.03
2013-8-17,66.6,64.6,61.9,66.3,63.6,60.2,99,97,89,30.19,30.13,7,0,7,0.43
2013-8-18,83.0,72.3,66.4,74.1,69.3,66.1,99,91,71,30.23,30.14,6,0,6,0.23
2013-8-19,75.9,70.4,66.7,72.3,69.0,66.1,99,96,85,30.19,30.10,2,0,6,0.31
2013-8-20,82.8,73.4,66.1,74.9,70.6,65.8,100,92,74,30.19,30.12,0,0,0,0.00
2013-8-21,86.6,76.1,72.1,77.4,73.9,71.5,99,93,73,30.23,30.10,4,0,4,0.41
2013-8-22,90.0,77.9,70.8,77.7,73.1,68.9,99,86,59,30.16,30.00,8,0,8,0.05
2013-8-23,89.0,76.0,68.3,76.0,71.3,67.7,99,87,58,30.08,29.94,6,0,6,0.03
2013-8-24,83.0,72.7,64.5,68.6,64.3,60.3,96,77,49,30.30,30.08,6,0,6,0.00
2013-8-25,81.6,70.4,62.0,66.7,62.9,60.7,98,79,51,30.40,30.29,9,0,9,0.00
2013-8-26,83.7,69.7,58.2,67.1,62.6,57.4,99,80,52,30.33,30.13,4,0,4,0.01
2013-8-27,88.2,76.2,65.1,77.3,69.2,59.8,96,80,61,30.15,29.98,5,0,5,0.00
2013-8-28,85.9,78.1,71.4,77.9,74.3,70.5,98,89,73,30.00,29.90,2,0,2,0.00
2013-8-29,91.1,81.0,74.7,77.8,74.1,71.3,93,81,62,29.99,29.88,6,0,6,0.00
2013-8-30,88.8,77.6,69.5,73.5,69.8,66.1,96,79,48,30.06,29.93,5,0,6,0.00
2013-8-31,74.3,72.0,71.1,71.8,70.2,69.3,97,94,88,29.97,29.94,2,0,2,0.00
2013-9-1,88.9,74.4,71.3,77.5,72.0,70.1,98,93,67,29.91,29.78,1,0,8,0.36
2013-9-2,86.7,77.1,70.7,77.8,74.0,70.1,99,91,70,29.91,29.80,5,0,5,0.00
2013-9-3,90.3,79.1,72.1,76.9,73.9,70.2,99,86,57,29.95,29.80,6,0,6,0.00
2013-9-4,88.7,75.4,65.0,73.2,68.5,63.6,97,81,50,30.10,29.95,4,0,5,0.01
2013-9-5,89.3,75.1,65.0,70.0,66.5,57.1,99,78,36,30.12,30.04,5,0,5,0.00
2013-9-6,84.9,73.0,64.5,66.5,62.8,58.8,96,73,47,30.19,30.08,7,0,7,0.00
2013-9-7,85.9,73.0,63.7,70.3,65.4,60.1,95,79,52,30.14,29.98,3,0,4,0.00
2013-9-8,89.5,76.2,66.0,74.2,68.9,65.1,98,81,47,29.99,29.91,5,0,5,0.00
2013-9-9,91.0,77.7,67.4,74.8,69.7,66.5,99,79,49,30.14,29.99,5,0,5,0.01
2013-9-10,75.7,75.4,75.1,71.9,71.4,70.5,88,87,86,30.16,30.14,2,0,2,0.00
2013-9-11,89.2,78.7,69.6,73.8,70.6,67.7,95,78,57,30.21,30.08,0,0,6,0.00
2013-9-12,91.0,73.6,70.8,74.4,71.0,66.9,98,92,57,30.07,29.83,9,0,9,0.78
2013-9-13,85.5,74.4,67.0,70.8,65.5,54.6,99,77,45,29.91,29.77,8,0,8,0.00
2013-9-14,79.3,67.3,58.1,62.2,56.4,51.7,86,69,49,30.14,29.91,7,0,7,0.00
2013-9-15,84.0,68.8,56.9,69.2,61.9,54.1,94,80,55,30.24,30.11,4,0,4,0.00
2013-9-16,87.3,76.6,68.4,73.2,68.1,62.7,97,77,46,30.16,30.04,5,0,5,0.00
2013-9-17,79.0,69.4,61.1,63.9,58.1,54.5,88,69,44,30.31,30.16,4,0,10,0.00
2013-9-18,76.8,64.2,55.0,60.2,55.8,51.8,91,76,50,30.33,30.18,7,0,7,0.00
2013-9-19,79.6,67.1,57.0,66.5,60.4,53.8,95,80,56,30.21,30.09,0,0,0,0.00
2013-9-20,85.0,73.6,67.0,71.9,66.7,62.3,95,80,58,30.10,29.92,0,0,0,0.00
2013-9-21,78.1,71.3,66.4,71.2,68.2,65.0,97,90,75,29.96,29.72,7,0,7,0.85
2013-9-22,79.0,67.6,60.5,65.4,61.2,58.3,98,82,51,29.91,29.69,11,0,11,0.72
2013-9-23,77.0,64.4,56.0,62.5,57.8,53.5,97,81,52,30.08,29.91,0,0,0,0.00
2013-9-24,79.5,66.1,57.8,63.4,59.5,56.4,97,81,51,30.11,29.95,0,0,0,0.01
2013-9-25,71.9,64.7,59.6,65.5,61.3,58.4,98,89,74,29.96,29.88,1,0,3,0.06
2013-9-26,78.7,66.2,58.0,62.7,59.4,55.3,98,81,50,30.05,29.89,7,0,7,0.00
2013-9-27,76.8,63.7,53.6,61.0,57.0,52.8,98,80,53,30.20,30.05,6,0,6,0.00
2013-9-28,72.7,61.9,53.5,58.0,54.9,52.4,97,79,52,30.27,30.18,7,0,7,0.01
2013-9-29,73.5,62.7,55.6,60.0,56.3,53.9,96,81,56,30.19,30.05,5,0,5,0.00
2013-9-30,78.0,63.5,53.0,62.9,57.6,51.9,98,83,51,30.12,30.01,3,0,5,0.00
2013-10-1,84.0,67.6,56.2,67.4,61.1,55.4,99,82,48,30.15,30.03,4,0,4,0.01
2013-10-2,84.3,70.0,59.9,67.2,63.3,59.3,99,82,47,30.16,30.06,5,0,5,0.01
2013-10-3,85.0,71.3,62.3,70.0,65.4,61.3,99,83,52,30.14,30.06,4,0,4,0.00
2013-10-4,87.7,72.9,63.0,70.9,66.3,62.1,98,82,50,30.15,30.06,3,0,3,0.00
2013-10-5,89.5,73.4,62.8,72.4,67.3,62.2,99,84,49,30.13,30.03,2,0,4,0.01
2013-10-6,84.8,73.2,64.5,71.0,67.5,63.4,98,84,55,30.07,29.92,9,0,9,0.00
2013-10-7,74.6,70.7,64.1,72.6,68.9,57.0,98,94,77,30.00,29.83,6,0,6,0.36
2013-10-8,64.7,60.8,57.9,57.3,52.2,49.2,80,73,68,30.21,29.99,9,0,9,0.00
2013-10-9,72.3,60.7,52.3,58.1,52.6,48.8,90,75,58,30.22,30.12,9,0,9,0.00
2013-10-10,68.3,61.1,55.8,63.1,57.1,51.1,93,87,79,30.12,29.97,7,0,8,0.00
2013-10-11,75.1,66.8,61.3,65.4,62.0,59.4,95,85,65,30.00,29.92,4,0,5,0.00
2013-10-12,74.5,66.8,59.5,65.4,62.8,58.7,98,87,71,30.09,29.96,5,0,5,0.00
2013-10-13,71.2,65.6,62.6,65.2,62.6,61.0,96,90,80,30.22,30.08,9,0,9,0.00
2013-10-14,66.2,62.8,60.8,63.1,60.8,59.0,98,93,87,30.25,30.18,11,0,11,0.09
2013-10-15,76.0,63.3,54.8,59.0,56.2,51.5,98,80,45,30.21,30.06,7,0,7,0.00
2013-10-16,76.8,67.0,60.0,64.4,61.2,56.7,95,83,61,30.09,29.95,4,0,4,0.00
2013-10-17,72.7,66.8,63.3,66.1,64.1,61.8,97,91,77,29.98,29.85,6,0,6,0.03
2013-10-18,67.4,62.7,57.8,65.6,58.0,51.7,98,85,63,30.05,29.89,5,0,5,0.01
2013-10-19,67.9,61.7,56.6,63.5,58.7,54.8,95,90,76,29.99,29.84,4,0,4,0.00
2013-10-20,70.1,55.8,46.7,55.1,48.0,42.4,97,78,40,30.13,29.92,5,0,9,0.01
2013-10-21,71.6,56.2,44.5,55.0,49.8,43.7,99,81,49,30.17,30.02,1,0,3,0.01
2013-10-22,65.5,60.2,57.2,61.1,57.2,53.1,98,90,81,30.03,29.81,3,0,3,0.00
2013-10-23,67.8,58.9,45.8,59.8,47.7,34.4,98,70,34,30.04,29.72,16,1,16,0.00
2013-10-24,60.3,48.2,36.4,45.7,37.5,33.4,91,68,45,30.20,30.04,8,0,8,0.00
2013-10-25,55.9,46.9,38.5,40.0,35.2,31.3,87,65,40,30.41,30.19,10,0,10,0.00
2013-10-26,60.2,45.3,32.2,39.0,34.2,30.2,96,68,39,30.40,30.11,8,0,8,0.00
2013-10-27,70.5,55.7,43.8,52.1,45.2,37.6,94,70,44,30.15,30.06,6,0,6,0.00
2013-10-28,67.0,55.1,49.6,57.4,52.3,48.7,98,91,69,30.28,30.13,2,0,2,0.00
2013-10-29,75.7,60.3,50.3,59.9,55.5,49.5,99,86,54,30.35,30.25,4,0,4,0.00
2013-10-30,78.5,62.6,53.1,61.4,57.3,52.3,99,85,53,30.31,30.16,8,0,8,0.01
2013-10-31,71.2,64.9,58.4,64.8,59.8,57.0,97,84,69,30.20,29.92,4,0,8,0.01
2013-11-1,70.2,66.5,59.7,66.5,64.0,58.8,98,92,84,29.92,29.67,11,0,11,0.46
2013-11-2,71.2,59.6,48.0,59.2,52.3,43.1,99,80,39,29.98,29.73,10,0,10,0.00
2013-11-3,64.4,50.2,40.6,43.9,40.6,37.4,94,73,37,30.37,29.98,10,0,10,0.00
2013-11-4,59.9,47.4,37.1,40.2,36.7,31.5,94,69,41,30.56,30.37,7,0,7,0.00
2013-11-5,57.6,48.3,37.8,49.5,41.3,32.6,91,77,65,30.57,30.44,7,0,7,0.00
2013-11-6,74.5,58.3,45.6,58.8,52.2,44.2,96,82,55,30.44,30.13,5,0,5,0.00
2013-11-7,68.6,57.7,44.6,61.3,52.0,35.4,98,82,58,30.14,29.95,10,0,10,0.00
2013-11-8,59.4,46.7,37.2,36.4,32.3,25.7,92,61,29,30.35,30.14,10,0,10,0.00
2013-11-9,60.1,46.7,32.9,39.0,34.6,30.6,98,67,35,30.41,30.22,7,0,7,0.00
2013-11-10,73.0,55.3,41.8,45.6,38.9,28.9,95,58,27,30.25,30.10,8,0,8,0.00
2013-11-11,61.7,49.2,37.1,41.2,33.4,27.7,94,58,29,30.37,30.17,8,0,8,0.00
2013-11-12,64.3,45.3,30.7,44.1,36.6,28.1,96,75,35,30.47,30.08,12,0,12,0.18
2013-11-13,47.1,34.9,26.1,30.8,24.7,19.5,95,70,35,30.58,30.46,13,0,13,0.00
2013-11-14,57.7,41.1,29.5,34.7,29.8,24.7,97,70,28,30.51,30.36,4,0,7,0.01
2013-11-15,59.0,47.2,33.7,50.7,41.6,32.4,98,83,51,30.38,30.22,2,0,3,0.01
2013-11-16,67.9,56.5,50.5,59.5,53.8,49.2,98,91,73,30.28,30.20,3,0,4,0.00
2013-11-17,69.9,61.4,53.6,64.6,59.0,52.7,99,93,73,30.22,29.91,9,0,9,0.11
2013-11-18,77.3,65.8,53.1,66.8,53.8,33.6,99,69,37,30.00,29.83,10,1,10,0.13
2013-11-19,58.2,49.2,43.1,33.8,30.6,27.3,62,49,31,30.31,29.99,9,0,9,0.00
2013-11-20,56.0,45.5,36.4,37.4,33.2,29.2,76,63,46,30.48,30.31,8,0,8,0.00
2013-11-21,63.1,51.8,43.5,49.2,43.2,35.6,83,73,59,30.51,30.38,6,0,6,0.00
2013-11-22,69.8,59.2,50.7,60.2,53.3,45.6,92,81,69,30.41,30.11,6,0,6,0.00
2013-11-23,62.1,56.1,42.7,59.7,44.7,22.4,98,69,34,30.22,30.06,8,0,8,0.00
2013-11-24,42.6,35.2,28.1,24.8,13.3,4.8,59,41,22,30.57,30.22,9,1,9,0.00
2013-11-25,44.6,34.6,24.4,14.3,10.6,7.2,57,38,24,30.62,30.39,6,0,6,0.00
2013-11-26,63.7,42.5,33.3,62.8,35.7,12.3,99,81,32,30.39,29.62,11,1,18,1.36
2013-11-27,46.5,39.8,28.2,46.0,34.3,18.4,99,81,58,30.23,29.53,12,1,13,0.45
2013-11-28,48.8,34.4,23.9,31.1,21.1,14.7,87,61,28,30.52,30.23,7,0,7,0.00
2013-11-29,54.9,39.8,28.6,32.3,28.1,24.5,97,67,34,30.64,30.50,8,0,8,0.00
2013-11-30,50.4,37.4,29.0,33.1,28.2,24.2,93,71,46,30.67,30.40,4,0,8,0.00
2013-12-1,59.2,43.0,30.7,43.8,36.3,29.4,96,79,46,30.40,30.05,6,0,6,0.00
2013-12-2,59.6,47.2,37.2,44.9,41.7,36.2,97,83,52,30.05,29.84,5,0,5,0.00
2013-12-3,56.7,49.1,39.9,51.3,45.8,38.8,98,89,80,30.00,29.89,4,0,4,0.01
2013-12-4,60.7,56.8,53.3,58.5,55.4,49.9,99,95,83,30.11,29.99,7,0,7,0.05
2013-12-5,64.8,60.9,57.8,64.2,60.5,57.5,99,99,98,30.15,30.05,9,1,9,0.13
2013-12-6,76.7,69.1,62.6,65.6,63.9,60.8,99,84,67,30.08,29.98,9,3,14,0.00
2013-12-7,68.4,52.8,45.5,65.1,49.4,38.9,97,88,77,30.45,30.00,11,1,11,0.21
2013-12-8,45.5,37.9,34.7,39.0,34.7,32.4,97,89,70,30.47,30.32,8,0,8,0.20
2013-12-9,45.9,40.2,34.6,45.6,39.8,33.8,99,98,97,30.32,30.08,5,0,5,0.19
2013-12-10,46.7,46.6,45.9,46.4,46.3,45.6,99,99,99,30.09,29.99,3,0,3,0.20
2013-12-11,46.7,46.7,46.7,46.4,46.4,46.4,99,99,99,30.00,30.00,0,0,1,0.20
2013-12-12,46.7,46.7,46.7,46.4,46.4,46.4,99,99,99,30.00,30.00,0,0,1,0.20
2013-12-13,46.7,46.7,46.7,46.4,46.4,46.4,99,99,99,30.00,30.00,0,0,1,0.20
2013-12-14,49.4,46.2,38.8,46.9,45.6,33.7,99,98,65,30.31,29.81,2,0,8,1.03
2013-12-15,55.0,43.8,34.3,45.3,37.9,28.8,99,82,51,30.12,29.76,5,0,9,0.03
2013-12-16,57.3,43.2,31.0,38.5,34.0,28.6,95,72,44,30.21,30.11,7,1,7,0.01
2013-12-17,62.7,48.1,34.4,40.0,36.5,31.6,97,67,40,30.16,29.93,11,1,11,0.00
2013-12-18,53.1,41.8,31.9,32.0,26.7,17.4,93,59,27,30.32,30.06,13,0,13,0.00
2013-12-19,62.4,46.2,31.0,33.5,29.8,24.4,97,59,25,30.36,30.25,9,1,9,0.00
2013-12-20,64.7,53.6,43.0,52.5,46.4,31.0,93,77,51,30.27,30.15,4,0,8,0.00
2013-12-21,69.5,58.7,47.7,64.7,55.5,46.6,98,89,75,30.17,30.04,14,1,14,0.00
2013-12-22,74.3,67.3,62.2,68.8,64.6,61.2,99,92,72,30.09,30.01,15,3,15,1.15
2013-12-23,64.1,61.2,47.3,63.8,60.4,41.7,99,97,79,30.18,30.01,11,1,11,1.14
2013-12-24,49.0,41.7,29.7,42.2,29.7,17.9,83,63,46,30.49,30.16,9,1,9,0.01
2013-12-25,42.5,31.4,23.6,26.2,16.6,10.3,84,56,30,30.59,30.43,6,0,6,0.00
2013-12-26,53.7,39.8,32.1,33.4,27.8,20.1,90,64,37,30.44,30.27,5,0,5,0.00
2013-12-27,53.7,38.5,28.8,33.4,27.5,22.1,94,69,31,30.50,30.39,4,0,4,0.00
2013-12-28,55.0,39.7,28.0,39.8,31.4,26.1,98,76,33,30.45,30.15,5,0,5,0.01
2013-12-29,54.9,47.0,42.1,51.2,43.6,36.3,99,88,64,30.15,29.79,10,0,10,1.34
2013-12-30,53.3,44.0,36.3,47.5,41.4,35.8,99,91,69,30.15,29.96,4,0,4,0.01
2013-12-31,51.3,42.7,33.6,40.9,34.1,26.2,95,74,38,30.40,30.12,7,0,9,0.00
2014-1-1,48.6,37.0,31.7,36.7,32.2,28.0,96,85,48,30.44,30.18,6,0,6,0.00
2014-1-2,46.8,43.2,37.7,46.2,40.6,35.5,98,90,80,30.18,29.65,10,0,10,0.23